Location: Bethera
(33.2010°N, 79.7880°W)
Time: 17:43:20
(UTC-04:00)

Daily predictions for brighter satellites

Satellite Brightness Start Highest point End
(mag) Time Altitude Azimuth Time Altitude Azimuth Time Altitude Azimuth
Helios 1A 4.4 20:39:58 10° S 20:43:54 40° W 20:47:50 10° NNW
CZ-3C R/B 4.2 19:29:47 10° WSW 20:46:50 41° S 20:56:14 10° ESE
Cosmos 1340 Rocket 3.9 20:44:06 10° SSW 20:47:59 51° W 20:51:56 10° N
Abrixas 4.1 20:46:36 10° S 20:48:39 17° SE 20:50:43 10° E
Resurs 1-3 4.4 20:46:20 10° S 20:50:38 55° W 20:54:56 10° NNW
H-2A R/B 2.9 20:47:34 10° SSE 20:51:11 53° ENE 20:54:49 10° N
ATLAS 5 CENTAUR R/B 2.5 20:45:41 10° NNW 20:51:52 85° ENE 20:58:23 10° SSE
H-2A R/B 3.9 20:53:09 10° E 20:55:29 15° ENE 20:57:49 10° NE
Cosmos 2184 Rocket 4.0 20:49:23 10° S 20:55:31 77° E 21:01:42 10° N
Okean 1-7 4.4 20:54:23 10° NNW 20:58:26 41° W 21:02:30 10° SSW
Cosmos 1408 4.0 20:58:00 10° SE 21:00:46 21° E 21:03:32 10° NE
Intelsat 3F5 C 4.5 20:58:01 10° WSW 21:01:22 50° S 21:04:07 13° ESE
Cosmos 1782 3.3 20:57:49 10° N 21:01:40 42° E 21:05:31 10° SSE
PSLV R/B 3.5 20:58:34 10° WNW 21:01:57 63° SSW 21:04:58 13° SE
Atlas Centaur 2 1.6 21:06:20 10° W 21:09:55 43° S 21:12:29 16° ESE
CZ-4 DEB 3.0 21:09:37 11° SSE 21:12:27 48° ENE 21:15:32 10° N
COS B Rocket 4.4 21:10:07 10° NNE 21:13:06 22° E 21:14:38 17° ESE
Meteor 2-6 Rocket 4.3 21:08:18 10° N 21:14:11 65° E 21:19:52 10° SSE
Cosmos 1844 Rocket 3.5 21:11:11 10° SW 21:16:42 55° WNW 21:22:15 10° N
Meteor 2-10 Rocket 4.1 21:11:04 10° NNW 21:16:48 70° W 21:22:19 10° S
Cosmos 1825 2.7 21:14:05 10° SSE 21:17:36 37° E 21:21:09 10° NNE
Cosmos 1939 Rocket 3.7 21:15:56 16° SE 21:18:20 30° ENE 21:21:47 10° N
Cosmos 2278 Rocket 2.1 21:13:14 10° S 21:18:50 70° ESE 21:24:29 10° NNE
FENGYUN 3A 4.1 21:15:18 10° S 21:20:38 64° WSW 21:25:59 10° NNW
GPS 2-05 Rocket1 3.4 21:17:02 10° W 21:20:43 60° N 21:24:07 12° ENE
COSMOS 2406 3.7 21:15:44 10° NNW 21:21:24 63° WSW 21:26:59 10° S
Cosmos 1844 4.2 21:19:19 10° SSW 21:25:00 65° WNW 21:30:46 10° NNE
Cosmos 1674 Rocket 3.5 21:21:00 10° N 21:25:28 89° E 21:29:53 10° S
SL-27 R/B 3.1 21:22:09 10° NNW 21:25:41 56° WSW 21:29:09 10° S
ALOS 3.3 21:21:20 10° S 21:25:48 47° W 21:30:19 10° NNW
Okean 2 Rocket 3.7 21:27:34 17° SSE 21:30:22 35° E 21:34:23 10° NNE
SJ-11-01 4.3 21:28:39 13° SSE 21:32:48 73° ENE 21:37:33 10° N
Envisat 3.3 21:31:58 19° SE 21:35:18 49° ENE 21:40:11 10° N
USA 186 3.7 21:33:19 10° SSW 21:36:03 28° W 21:38:57 10° NW
SEDSat Delta rocket 3.1 21:32:40 10° WSW 21:37:02 49° SSE 21:39:02 26° ESE
OAO 1 Rocket 4.4 21:32:01 10° WSW 21:37:20 89° S 21:42:05 13° ENE
Cosmos 1782 Rocket 3.7 21:34:13 13° S 21:38:08 56° E 21:42:31 10° NNE
Cosmos 2082 Rocket 3.7 21:38:36 10° N 21:42:52 21° ENE 21:44:56 18° E
Intercosmos 25 3.8 21:43:01 31° ESE 21:43:12 32° E 21:46:07 10° NNE
OAO 3 Rocket 3.1 21:39:26 10° WSW 21:44:24 79° SSE 21:48:02 18° E
Nadezhda 3 Rocket 4.0 21:40:14 10° N 21:46:37 77° E 21:51:47 16° SSE
ERS-1 Rocket 3.0 21:42:56 15° S 21:47:08 82° WSW 21:52:11 10° NNW
Cosmos 1420 Rocket 3.9 21:42:05 10° SSW 21:47:19 80° ESE 21:52:34 10° NNE
APEX 3.2 21:44:26 10° SSW 21:48:02 79° ESE 21:52:45 10° NNE
COSMOS 2487 2.4 21:50:16 10° N 21:53:51 70° ENE 21:54:41 49° SE
DNEPR-1 R/B 4.5 21:49:21 10° NNW 21:54:09 38° NE 21:55:33 31° E
Cosmos 2297 3.6 21:50:40 10° SSW 21:56:19 72° ESE 22:02:02 10° NNE
Cosmos 1975 Rocket 3.1 21:52:56 10° N 21:57:13 59° E 21:58:29 41° SE
Cosmos 407 Rocket 4.3 21:52:46 10° NNW 21:57:51 48° WSW 22:02:12 14° S
Cosmos 1140 Rocket 3.6 21:53:10 10° N 21:58:15 57° ENE 22:00:06 36° SE
Terra 4.1 22:01:13 10° ENE 22:01:13 10° ENE 22:01:39 10° ENE
EO 1 Delta rocket 4.3 21:59:08 10° N 22:04:44 70° WNW 22:09:27 10° SSW
Meteosat 1 Rocket2 4.4 21:59:26 10° W 22:04:51 51° S 22:08:04 32° SE
ISS 0.2 22:04:52 10° NW 22:05:40 11° NNW 22:06:28 10° NNW
MetOp-B 4.3 22:04:33 37° SE 22:06:26 57° ENE 22:11:40 10° N
Cosmos 1378 Rocket 3.9 22:02:14 10° NNW 22:06:30 63° W 22:08:46 27° SSW
CZ-4B R/B 3.6 22:04:14 10° NNE 22:08:54 45° E 22:09:18 44° ESE
Cosmos 1606 4.0 22:06:06 10° NNW 22:09:46 38° W 22:12:07 19° SSW
Cosmos 2341 Rocket 4.4 22:05:04 10° SSW 22:11:18 65° W 22:17:32 10° N
NOSS 8 (F) 4.4 22:11:49 71° ENE 22:11:49 71° ENE 22:15:01 10° NNE
H-2A R/B 3.7 22:11:12 19° ENE 22:11:33 19° ENE 22:15:10 10° NNE
Cosmos 1238 Rocket 3.4 22:12:06 10° NNW 22:15:35 53° W 22:17:07 33° SSW
SPOT 5 3.0 22:14:01 38° SSE 22:16:07 88° E 22:21:31 10° NNW
SL-8 Rocket 3.9 22:13:59 24° S 22:18:00 81° E 22:24:16 10° N
Abrixas 4.2 22:21:39 10° WSW 22:24:28 33° NW 22:24:56 31° NNW
USA 245 4.0 22:25:48 40° NNE 22:25:48 40° NNE 22:28:48 10° N
SPOT 1/Viking Rocket 3.6 22:26:12 54° ESE 22:26:56 60° ENE 22:32:04 10° N
ARGOS 3.3 22:27:48 51° E 22:28:28 54° ENE 22:33:40 10° N
Lacrosse 5 3.6 22:31:52 20° ENE 22:31:52 20° ENE 22:33:27 10° NE
H-2A R/B 3.2 22:29:42 29° SW 22:31:10 38° W 22:35:08 10° NNW
Cosmos 1242 Rocket 3.1 22:27:53 10° NNW 22:31:23 57° W 22:31:23 57° W
Elektron 3 4.4 22:28:53 10° NNW 22:31:54 72° NNE 22:31:54 72° NNE
Timation 2 Rocket 3.8 22:26:32 10° NNW 22:32:32 86° WSW 22:34:07 52° SSE
YAOGAN 6 3.2 22:33:23 53° NNW 22:33:23 53° NNW 22:36:12 10° NNW
Cosmos 2151 Rocket 3.5 22:36:41 85° SW 22:36:47 88° W 22:41:20 10° N
Cosmos 1850 Rocket 4.1 22:38:43 10° NNW 22:44:01 70° WSW 22:44:49 60° SSW
Cosmos 864 Rocket 4.4 22:45:50 50° S 22:47:36 86° W 22:53:47 10° N
USA 229 DEB 3.9 22:41:43 10° NNW 22:48:48 64° ENE 22:50:15 53° ESE
USA 229 3.9 22:41:49 10° NNW 22:48:54 63° ENE 22:50:21 53° ESE
Meteor 1-20 Rocket 4.0 22:50:14 74° E 22:50:14 74° E 22:55:44 10° NNE
Timation 1 Rocket 4.4 22:48:54 35° SSW 22:51:37 79° WNW 22:57:39 10° NNE
Cosmos 2366 rocket 4.3 22:57:17 38° SSW 22:59:40 64° W 23:05:57 10° N
Cosmos 1833 Rocket 2.6 22:55:47 10° NNW 23:01:16 79° NE 23:01:16 79° NE
Cosmos 1331 Rocket 4.1 23:05:38 71° NW 23:05:38 71° NW 23:10:29 10° NNE
Cosmos 2082 Rocket 2.9 23:21:45 10° NW 23:26:48 45° W 23:26:48 45° W
NOSS 3-1 (C) 4.3 23:28:46 10° NNW 23:36:18 53° NE 23:37:00 52° ENE
Terra 3.2 23:40:06 37° NNW 23:40:06 37° NNW 23:43:03 10° NNW
USA 234 3.3 23:37:02 10° NE 23:43:34 76° NW 23:43:56 74° WNW
H-2A R/B 3.3 23:51:51 39° WNW 23:51:51 39° WNW 23:55:41 10° NNW
Lacrosse 5 rocket 4.4 23:57:31 11° N 23:57:31 11° N 23:57:54 10° N
